[[{"header":{"parameterUnit":"m.s-1","parameterCategory":1,"la1":30.2991,"la2":30.254,"lo1":-89.0895,"lo2":-89.0444,"dy":0.0017,"dx":0.0017,"nx":28,"ny":28,"refTime":"2025-04-13T09:00:00:Z","depth":0,"parameterNumber":2,"parameterNumberName":"U-component_of_WINDS"},"data":[0,0,0,0,0,0,0,0,0,0,0,0,0,0,0,0,0,0,0,0,0,0,0,0,0,0,0,0,0,0,0,0,0,0,0,0,0,0,0,0,0,0,0,0,0,0,0,0,0,0,0,0,0,0,0,0,0,0,-2.6053,-2.6053,0,-2.6083,-2.6083,-2.6083,-2.603,-2.6028,-2.6026,-2.6025,-2.6057,-2.6059,-2.6062,0,0,0,0,0,0,0,0,0,0,0,0,0,-2.5951,-2.5953,-2.6053,-2.6053,-2.6053,-2.6083,-2.6083,-2.6084,-2.603,-2.6028,-2.6026,-2.6024,-2.6056,-2.6059,-2.6062,0,0,0,0,0,0,0,0,0,0,0,0,0,-2.5989,-2.5953,-2.6052,-2.603,-2.6029,-2.6083,-2.6083,-2.6084,-2.6031,-2.6028,-2.6025,-2.6023,-2.6055,-2.6059,-2.6063,-2.614,0,0,-2.6074,-2.6076,0,0,0,0,0,0,0,0,-2.5987,-2.5993,-2.6033,-2.6032,-2.603,-2.605,-2.6059,-2.6103,-2.6031,-2.603,-2.6025,-2.6021,-2.6057,-2.606,-2.6072,-2.6142,-2.6143,-2.6075,-2.6077,-2.6079,-2.608,0,0,0,0,0,0,0,-2.5985,-2.5991,-2.6064,-2.6034,-2.6032,-2.6019,-2.6022,-2.6067,-2.6058,-2.603,-2.6026,-2.603,-2.6056,-2.6068,-2.6072,-2.6144,-2.6074,-2.6078,-2.608,-2.6082,-2.6279,-2.6282,0,0,0,0,0,0,-2.5984,-2.599,-2.6064,-2.6065,-2.6001,-2.6023,-2.6026,-2.6046,-2.6058,-2.6057,-2.6033,-2.6028,-2.6063,-2.6068,-2.6073,-2.6165,-2.6078,-2.6082,-2.6084,-2.6276,-2.628,-2.6283,0,0,0,0,0,0,-2.5982,-2.5991,-2.6062,-2.6026,-2.6035,-2.6028,-2.6051,-2.6048,-2.6061,-2.606,-2.6058,-2.6047,-2.6061,-2.6068,-2.6124,-2.6165,-2.6084,-2.6087,-2.6273,-2.6277,-2.6281,-2.6349,0,0,0,0,0,0,-2.598,-2.5991,-2.602,-2.6028,-2.6037,-2.6112,-2.6053,-2.6051,-2.6068,-2.6062,-2.6073,-2.6072,-2.606,-2.6119,-2.6128,-2.6169,-2.609,-2.6269,-2.6275,-2.628,-2.6343,-2.6355,-2.6365,0,0,0,0,0,-2.5976,-2.6038,-2.6022,-2.6031,-2.6073,-2.6114,-2.612,-2.6104,-2.6071,-2.61,-2.61,-2.6072,-2.616,-2.6125,-2.6135,-2.6178,-2.6266,-2.6273,-2.628,-2.6338,-2.6353,-2.6365,0,0,0,0,0,0,-2.6035,-2.6038,-2.602,-2.6086,-2.6101,-2.6105,-2.6142,-2.612,-2.6144,-2.6137,-2.6117,-2.612,-2.618,-2.6185,-2.6146,-2.6254,-2.6208,-2.6217,-2.6248,-2.6262,-2.6274,-2.6271,-2.6093,0,0,0,0,0,-2.6056,-2.6089,-2.609,-2.6149,-2.6157,-2.6148,-2.6166,-2.6152,-2.6166,-2.6172,-2.6176,-2.6191,-2.6222,-2.6242,-2.6271,-2.6344,-2.6346,-2.6378,-2.639,-2.6399,-2.6407,-2.6446,-2.6461,-2.6305,-2.6305,-2.6305,0,0,-2.6099,-2.6105,-2.6127,-2.6161,-2.617,-2.6206,-2.6154,-2.6193,-2.6219,-2.6178,-2.6231,-2.6235,-2.625,-2.6315,-2.6344,-2.6321,-2.645,-2.6407,-2.6415,-2.6417,-2.6454,-2.6469,-2.6482,-2.6309,-2.6309,-2.6308,0,0,-2.6195,-2.6203,-2.6252,-2.6263,-2.6278,-2.6272,-2.6285,-2.6293,-2.6293,-2.6346,-2.6316,-2.6348,-2.6402,-2.6414,-2.6428,-2.653,-2.6506,-2.654,-2.6599,-2.6638,-2.665,-2.6661,-2.6697,-2.6711,-2.6548,-2.6549,-2.6549,0,-2.6247,-2.6299,-2.6281,-2.6323,-2.6338,-2.6303,-2.6353,-2.6365,-2.6389,-2.6401,-2.6374,-2.6441,-2.6449,-2.6517,-2.6542,-2.6554,-2.6568,-2.6538,-2.6649,-2.666,-2.667,-2.6705,-2.6718,-2.6553,-2.6552,-2.6552,-2.6551,0,-2.6362,-2.6398,-2.6436,-2.646,-2.648,-2.6526,-2.6516,-2.6539,-2.6524,-2.6521,-2.6576,-2.6585,-2.6614,-2.663,-2.6616,-2.6696,-2.6681,-2.6653,-2.6605,-2.6689,-2.6721,-2.6735,-2.6558,-2.6557,-2.6556,-2.6555,0,0,-2.6495,-2.6508,-2.6523,-2.6533,-2.6548,-2.6576,-2.6621,-2.665,-2.667,-2.6688,-2.6725,-2.6772,-2.6747,-2.6762,-2.6749,-2.6783,-2.6865,-2.6751,-2.6751,-2.6771,-2.6953,-2.6974,-2.699,-2.6849,-2.6851,-2.6853,-2.6952,0,-2.659,-2.6666,-2.6652,-2.6727,-2.6761,-2.6729,-2.6768,-2.6782,-2.6781,-2.681,-2.6809,-2.6843,-2.6806,-2.6815,-2.6847,-2.6848,-2.6901,-2.6841,-2.6884,-2.6885,-2.688,-2.7007,-2.7028,-2.7121,-2.6965,-2.6967,-2.6968,0,-2.6711,-2.6734,-2.6812,-2.6822,-2.6836,-2.6871,-2.6897,-2.6925,-2.694,-2.6937,-2.6955,-2.6937,-2.6982,-2.6935,-2.6998,-2.6958,-2.6975,-2.6978,-2.6981,-2.6984,-2.6931,-2.7012,-2.715,-2.7164,-2.6988,-2.6986,-2.6985,0,-2.68,-2.685,-2.6903,-2.6914,-2.6927,-2.6952,-2.6959,-2.6972,-2.699,-2.7013,-2.7025,-2.7053,-2.7069,-2.7092,-2.7081,-2.7048,-2.7146,-2.7099,-2.7145,-2.7146,-2.7167,-2.7165,-2.7309,-2.7179,-2.7179,-2.7179,-2.7178,0,-2.6908,-2.6957,-2.6943,-2.6976,-2.7031,-2.7014,-2.7069,-2.7072,-2.7084,-2.7117,-2.7091,-2.7123,-2.7108,-2.714,-2.7132,-2.7186,-2.7193,-2.7192,-2.7189,-2.7194,-2.7194,-2.7204,-2.7197,-2.7182,-2.7181,-2.7181,-2.718,0,-2.7015,-2.7008,-2.7064,-2.7073,-2.7076,-2.7116,-2.7123,-2.7154,-2.7151,-2.7194,-2.7203,-2.72,-2.7235,-2.7228,-2.7267,-2.7262,-2.7329,-2.7318,-2.7323,-2.7321,-2.7368,-2.7363,-2.7522,-2.7542,-2.74,-2.7402,-2.7403,0,-2.7084,-2.7121,-2.7133,-2.7153,-2.7162,-2.7195,-2.7214,-2.72,-2.7221,-2.7242,-2.7271,-2.7304,-2.733,-2.7388,-2.739,-2.742,-2.741,-2.7464,-2.7414,-2.7418,-2.741,-2.7408,-2.7412,-2.7473,-2.7475,-2.7476,-2.7477,0,-2.7207,-2.7202,-2.7229,-2.7257,-2.728,-2.7301,-2.7319,-2.7338,-2.7326,-2.7351,-2.7386,-2.7407,-2.7447,-2.748,-2.7508,-2.7516,-2.7495,-2.7493,-2.7505,-2.751,-2.7511,-2.7511,-2.7349,-2.7489,-2.7488,-2.7487,-2.7486,-2.7486,-2.7296,-2.7328,-2.7342,-2.7374,-2.7386,-2.7405,-2.7434,-2.7436,-2.7465,-2.7497,-2.7487,-2.7528,-2.7544,-2.7579,-2.7591,-2.7623,-2.7603,-2.7621,-2.7625,-2.763,-2.7635,-2.7507,-2.7628,-2.7628,-2.7628,-2.7627,-2.7627,0,-2.7417,-2.7425,-2.7455,-2.7481,-2.7507,-2.7485,-2.7505,-2.7528,-2.7564,-2.758,-2.7606,-2.7648,-2.7681,-2.7686,-2.7717,-2.7742,-2.7733,-2.7751,-2.7748,-2.775,-2.7652,-2.7638,-2.7757,-2.7757,-2.7757,-2.7757,-2.7757,-2.7757,-2.7483,-2.7535,-2.7532,-2.7591,-2.7598,-2.7637,-2.7651,-2.7668,-2.7681,-2.7728,-2.7755,-2.7758,-2.777,-2.7802,-2.7831,-2.7832,-2.7845,-2.7866,-2.7863,-2.777,-2.7757,-2.7745,-2.7731,-2.7869,-2.7869,-2.7959,-2.7959,-2.796]},{"header":{"parameterUnit":"m.s-1","parameterCategory":1,"la1":30.2991,"la2":30.254,"lo1":-89.0895,"lo2":-89.0444,"dy":0.0017,"dx":0.0017,"nx":28,"ny":28,"refTime":"2025-04-13T09:00:00:Z","depth":0,"parameterNumber":3,"parameterNumberName":"V-component_of_WINDS"},"data":[0,0,0,0,0,0,0,0,0,0,0,0,0,0,0,0,0,0,0,0,0,0,0,0,0,0,0,0,0,0,0,0,0,0,0,0,0,0,0,0,0,0,0,0,0,0,0,0,0,0,0,0,0,0,0,0,0,0,1.6408,1.6408,0,1.6475,1.6476,1.6477,1.6504,1.6503,1.6503,1.6503,1.657,1.6572,1.6574,0,0,0,0,0,0,0,0,0,0,0,0,0,1.6302,1.6303,1.6408,1.6409,1.6409,1.6475,1.6476,1.6477,1.6504,1.6503,1.6503,1.6503,1.657,1.6572,1.6574,0,0,0,0,0,0,0,0,0,0,0,0,0,1.6356,1.6304,1.6408,1.6431,1.6433,1.6475,1.6476,1.6477,1.6504,1.6503,1.6503,1.6503,1.6569,1.6572,1.6575,1.6598,0,0,1.6584,1.6585,0,0,0,0,0,0,0,0,1.6353,1.636,1.6426,1.6429,1.6432,1.6481,1.6463,1.6518,1.6504,1.6477,1.6503,1.6503,1.6541,1.6546,1.6559,1.6601,1.6604,1.6584,1.6586,1.6587,1.6588,0,0,0,0,0,0,0,1.6349,1.6357,1.6434,1.6427,1.6431,1.6438,1.6445,1.6474,1.6509,1.6479,1.6481,1.6489,1.6542,1.6556,1.6561,1.6605,1.6584,1.6586,1.6588,1.6589,1.6671,1.6671,0,0,0,0,0,0,1.6342,1.6354,1.6432,1.6436,1.6391,1.644,1.6448,1.6465,1.6509,1.6516,1.6489,1.649,1.6551,1.6557,1.6563,1.6595,1.6587,1.659,1.6591,1.6671,1.6671,1.6672,0,0,0,0,0,0,1.6339,1.6348,1.643,1.6396,1.6407,1.6442,1.6461,1.6467,1.6481,1.6517,1.6523,1.6497,1.6551,1.6559,1.659,1.6597,1.6591,1.6594,1.667,1.6671,1.6671,1.6656,0,0,0,0,0,0,1.6336,1.6347,1.6356,1.6396,1.6408,1.6455,1.6462,1.6468,1.6486,1.6488,1.6526,1.6532,1.6552,1.6585,1.6592,1.6601,1.6596,1.667,1.667,1.6671,1.6656,1.6656,1.6656,0,0,0,0,0,1.6332,1.6348,1.6357,1.6366,1.642,1.6455,1.6462,1.6486,1.6487,1.6496,1.652,1.653,1.6595,1.6588,1.6596,1.6606,1.6669,1.667,1.6671,1.6656,1.6656,1.6656,0,0,0,0,0,0,1.6308,1.6354,1.6364,1.6393,1.642,1.6459,1.6472,1.6485,1.6511,1.6512,1.6539,1.6547,1.6576,1.6594,1.6585,1.6632,1.6633,1.6636,1.6619,1.6619,1.6619,1.6615,1.6598,0,0,0,0,0,1.6306,1.6331,1.637,1.6392,1.6405,1.6436,1.6452,1.6468,1.6497,1.6508,1.6534,1.6561,1.6588,1.6604,1.6631,1.6659,1.6669,1.667,1.667,1.667,1.6672,1.6691,1.6692,1.6675,1.6675,1.6675,0,0,1.6302,1.633,1.6344,1.6388,1.641,1.6436,1.6446,1.6471,1.649,1.6512,1.6543,1.6562,1.6595,1.6625,1.6639,1.6641,1.6679,1.6671,1.6671,1.6673,1.6692,1.6693,1.6695,1.6675,1.6675,1.6675,0,0,1.6308,1.6332,1.6354,1.6377,1.6412,1.6433,1.6438,1.6477,1.6491,1.6523,1.654,1.6563,1.6608,1.6631,1.6648,1.6666,1.6677,1.6673,1.6674,1.6691,1.6693,1.6694,1.6702,1.6704,1.6675,1.6675,1.6675,0,1.6299,1.6338,1.6363,1.6389,1.6408,1.6431,1.6454,1.6475,1.6516,1.6529,1.653,1.6589,1.6612,1.6649,1.6653,1.6666,1.6674,1.6669,1.6691,1.6692,1.6694,1.6701,1.6704,1.6675,1.6675,1.6675,1.6675,0,1.6325,1.6352,1.6365,1.6407,1.6427,1.6451,1.6481,1.6499,1.6514,1.6535,1.6568,1.6597,1.663,1.664,1.6654,1.6679,1.6679,1.6685,1.6687,1.6694,1.6702,1.6705,1.6674,1.6674,1.6674,1.6674,0,0,1.6316,1.6373,1.6378,1.6398,1.6439,1.646,1.6486,1.652,1.6535,1.6563,1.6586,1.6625,1.6632,1.6651,1.6668,1.6683,1.6697,1.6688,1.6689,1.6689,1.6729,1.6725,1.6728,1.6705,1.6706,1.6706,1.6727,0,1.6328,1.6376,1.6401,1.6438,1.6464,1.6487,1.6509,1.6537,1.6558,1.6583,1.6606,1.6633,1.6639,1.6652,1.6668,1.6692,1.6706,1.6691,1.6727,1.6728,1.6719,1.6731,1.6727,1.6744,1.673,1.673,1.673,0,1.6348,1.6378,1.6418,1.6459,1.6471,1.649,1.6525,1.6548,1.6581,1.6595,1.6619,1.6636,1.6665,1.6664,1.6705,1.6694,1.6711,1.6725,1.6726,1.6731,1.673,1.6737,1.675,1.6753,1.6735,1.6735,1.6734,0,1.6339,1.6389,1.642,1.6436,1.6484,1.6498,1.6518,1.6551,1.6571,1.6601,1.6614,1.6646,1.6664,1.6689,1.6714,1.6712,1.6753,1.6754,1.6766,1.6765,1.6773,1.6772,1.679,1.6783,1.6783,1.6783,1.6782,0,1.6351,1.6374,1.6417,1.6436,1.6464,1.6493,1.652,1.6542,1.6571,1.6595,1.6617,1.6639,1.6671,1.6697,1.6717,1.6749,1.6756,1.6769,1.6774,1.6767,1.6766,1.6779,1.6778,1.6783,1.6783,1.6783,1.6783,0,1.6345,1.6374,1.641,1.6453,1.6465,1.6483,1.652,1.654,1.6563,1.6593,1.6602,1.6637,1.667,1.6698,1.674,1.6754,1.6786,1.6792,1.6775,1.6778,1.6789,1.6788,1.6815,1.6821,1.6809,1.6809,1.6809,0,1.635,1.6369,1.6415,1.6434,1.6454,1.6483,1.6504,1.6534,1.6554,1.6595,1.661,1.6644,1.6673,1.6723,1.6753,1.6786,1.6793,1.6801,1.6798,1.6791,1.6795,1.6793,1.6796,1.6801,1.68,1.68,1.68,0,1.6357,1.6371,1.6401,1.6436,1.6461,1.649,1.6519,1.6533,1.6569,1.6591,1.6625,1.6648,1.6692,1.6726,1.6763,1.6784,1.6798,1.6801,1.6806,1.6799,1.679,1.6796,1.6776,1.68,1.68,1.68,1.68,1.68,1.6358,1.6377,1.6413,1.6446,1.6472,1.6499,1.6521,1.6547,1.6576,1.6616,1.6631,1.6667,1.6701,1.6752,1.6773,1.6801,1.6803,1.681,1.6811,1.6813,1.6812,1.6785,1.6808,1.6808,1.6808,1.6808,1.6808,0,1.6367,1.6392,1.6422,1.6463,1.649,1.6503,1.6537,1.6557,1.6589,1.662,1.6649,1.6689,1.6722,1.6755,1.6791,1.6807,1.6815,1.6816,1.6815,1.682,1.6807,1.68,1.6809,1.6809,1.6809,1.6809,1.6809,1.6809,1.6374,1.6408,1.6427,1.6474,1.6499,1.6534,1.6553,1.6579,1.6604,1.6649,1.6678,1.6699,1.6732,1.677,1.6802,1.6811,1.6823,1.6822,1.6833,1.6821,1.682,1.682,1.6814,1.6825,1.6825,1.6843,1.6844,1.6844]}]]